Dewpoint
0 -1 2 3 4 5 6 4 5 2 2 0 -1 -2 -5 -5 -2 -1 0 1 2 2 2 2 2 2 2 1 1 -0 0 1 1 1 1 1 1 2 2 2 2 2 1 1
1 -0 2 3 2 3 4 4 5 5 5 2 -1 -3 -4 -5 -3 -1 -1 -0 1 1 2 2 2 2 1 1 -0 -0 1 0 -0 -0 0 0 1 2 2 2 2 2 2 1
-1 -0 0 1 1 2 2 3 3 4 2 0 1 0 -2 -3 -4 -2 -2 -1 -0 0 1 2 2 1 1 -0 -1 -0 0 -0 -0 -0 -1 -0 -0 0 1 1 1 1 0 -0
-2 -1 -1 -4 -4 -2 -0 -1 1 2 1 1 0 0 -0 -2 -4 -4 -3 -2 -0 -0 1 2 1 1 -0 -1 -1 -0 -0 -1 -1 -1 -1 -0 -1 -0 -0 1 0 -0 -1 -2
-0 -0 -1 -4 -0 -0 0 -0 -2 -1 -1 -0 0 -1 -2 -2 -3 -5 -5 -3 -1 0 2 1 1 1 -1 -1 -0 -0 -0 -1 -1 -1 -1 -1 -0 -0 0 -0 -1 -2 -3 -11
2 1 2 -4 0 -1 -2 2 -1 0 -0 -1 -1 1 -0 -1 -2 -3 -4 -3 -1 1 1 1 1 -1 -1 -1 -0 -0 -0 -1 -1 -1 -1 -0 0 0 -1 -2 -3 -10 -21 -23
2 3 2 -2 -3 -2 3 -1 1 2 1 -0 -1 -1 -2 -2 -2 -2 -0 -0 1 1 1 1 -0 -1 -1 -1 -1 -0 -0 -0 -0 -1 -1 0 -1 -2 -2 -8 -18 -22 -24 -24
2 4 2 -3 -0 2 -1 1 1 2 1 0 -1 -1 -2 -2 -0 0 0 0 0 1 1 0 -1 -1 -2 -2 -1 -1 -1 -1 -0 -0 -0 -1 -2 -3 -15 -19 -21 -22 -23 -24
0 0 -3 -4 -1 -2 -1 -0 1 2 1 -1 -1 -1 -0 0 0 1 1 1 1 1 1 -0 -0 -1 -2 -2 -2 -2 -2 -2 -1 -1 -2 -2 -5 -16 -20 -21 -22 -22 -23 -24
-1 -2 -2 -2 -2 -1 -1 -0 1 2 1 0 -1 -0 0 1 1 1 1 1 2 2 1 -0 -1 -1 -2 -2 -2 -2 -2 -3 -3 -3 -3 -7 -15 -18 -19 -21 -21 -22 -23 -23
-1 -2 -1 -2 -1 -2 -3 -1 0 2 1 2 1 1 3 4 4 3 3 4 4 3 2 1 0 -0 -1 -2 -2 -3 -3 -4 -4 -6 -7 -13 -16 -17 -19 -20 -21 -22 -22 -23
-0 0 -3 -5 -7 -8 -6 -2 1 0 2 1 1 2 3 4 4 4 4 4 4 4 4 4 4 3 1 -1 -3 -4 -4 -6 -7 -9 -12 -14 -16 -16 -18 -19 -21 -22 -22 -22
-7 -6 -5 -6 -6 -8 -5 -5 -2 1 2 2 2 2 2 2 1 1 2 2 2 3 4 4 4 3 3 2 -0 -4 -5 -7 -10 -12 -12 -15 -16 -17 -17 -18 -20 -20 -21 -21
-2 -3 -5 -4 -4 -4 -8 -10 -2 1 2 2 1 1 1 1 0 -0 -0 -0 0 1 2 2 2 3 3 3 2 0 -3 -6 -8 -11 -13 -15 -16 -16 -16 -17 -18 -18 -19 -20
-2 -2 -1 -1 -2 -3 -1 -3 1 2 1 1 0 0 -0 -0 -0 -0 -0 -1 -1 -1 -0 1 2 2 2 2 2 2 1 -1 -3 -6 -10 -12 -15 -15 -15 -16 -16 -16 -17 -19
-2 -1 -0 -1 -1 -1 -1 1 1 1 0 0 0 0 0 0 0 0 0 0 0 -0 -1 0 1 1 2 2 2 2 2 2 1 -1 -4 -7 -10 -13 -15 -15 -15 -16 -16 -18
-2 -2 -1 -2 -2 -2 -1 1 0 0 0 0 0 0 1 1 1 0 0 0 0 0 -1 -0 0 1 2 2 2 2 1 1 2 1 1 0 -4 -7 -11 -13 -15 -15 -15 -17
-2 -2 -2 -2 -2 -2 -1 -1 -0 -0 0 0 0 0 0 0 0 0 0 -0 0 0 -1 -1 -0 0 1 2 2 2 1 1 1 1 1 0 -0 -1 -2 -2 -10 -13 -15 -16
-2 -3 -2 -2 -2 -1 -1 -1 -1 -1 -1 -0 0 0 0 -0 -0 -0 -1 -0 -0 -0 -1 -1 -1 -1 -1 -0 1 1 1 1 1 1 0 -0 -0 -1 -1 -2 -2 -3 -9 -14
-3 -3 -3 -3 -2 -2 -2 -4 -5 -5 -5 -5 -5 -5 -4 -2 -2 -1 -1 -1 -1 -1 -1 -1 -1 -1 -2 -1 -1 -1 -1 -1 -1 -0 -0 -1 -1 -1 -2 -2 -2 -3 -5 -6
-4 -4 -4 -3 -3 -3 -7 -13 -13 -11 -11 -11 -10 -9 -9 -7 -6 -4 -3 -1 -1 -1 -1 -1 -2 -2 -1 -2 -2 -2 -2 -1 -1 -1 -1 -2 -2 -2 -2 -2 -3 -3 -4 -5
-4 -4 -4 -4 -4 -5 -8 -7 -10 -17 -15 -14 -14 -14 -13 -12 -10 -8 -6 -4 -3 -3 -2 -1 -1 -1 -1 -1 -1 -1 -1 -1 -2 -2 -3 -3 -3 -3 -3 -3 -3 -4 -4 -4
-2 -4 -4 -4 -4 -4 -13 -18 -19 -19 -18 -17 -16 -17 -16 -16 -16 -14 -11 -9 -8 -6 -3 -3 -3 -2 -2 -2 -2 -2 -2 -3 -3 -4 -4 -4 -4 -4 -4 -4 -4 -4 -5 -6
-2 -3 -4 -4 -4 -4 -4 -6 -12 -18 -17 -16 -17 -17 -16 -15 -15 -15 -15 -14 -12 -9 -6 -3 -3 -3 -3 -3 -3 -3 -3 -4 -4 -4 -5 -5 -5 -5 -5 -4 -5 -5 -5 -9
-3 -3 -4 -5 -5 -5 -5 -7 -12 -8 -19 -18 -17 -16 -16 -15 -14 -14 -15 -15 -13 -11 -8 -5 -3 -3 -3 -3 -3 -3 -4 -4 -5 -5 -5 -5 -5 -5 -5 -5 -5 -5 -8 -7
-6 -4 -4 -4 -4 -5 -10 -9 -9 -19 -20 -18 -17 -16 -15 -15 -15 -15 -15 -15 -14 -14 -12 -7 -4 -4 -4 -4 -4 -4 -4 -5 -5 -5 -5 -5 -5 -5 -5 -5 -5 -5 -7 -11
-10 -8 -6 -4 -4 -4 -6 -18 -21 -21 -21 -19 -18 -17 -16 -16 -16 -16 -15 -15 -15 -15 -14 -13 -10 -7 -5 -4 -4 -4 -5 -5 -5 -5 -5 -5 -5 -5 -5 -5 -5 -6 -6 -9
Wind_Speed
3 2 3 4 7 14 16 21 10 17 17 17 14 11 10 11 14 18 22 23 24 22 20 18 17 16 16 15 15 15 14 11 12 12 13 12 12 10 9 8 8 7 6 5
4 3 4 4 7 9 17 19 17 21 24 17 11 12 12 17 22 26 27 27 25 22 20 19 17 16 15 15 14 12 9 9 10 10 11 11 12 10 10 8 8 6 4 3
4 2 2 6 14 14 6 7 16 16 23 4 9 13 21 22 25 31 31 29 26 24 20 18 17 16 16 15 13 10 9 9 9 9 8 8 8 9 8 6 5 4 5 4
3 1 1 5 3 6 13 11 12 11 13 9 16 22 25 24 23 30 30 28 27 22 20 18 17 16 15 13 11 9 8 8 7 6 7 8 8 8 8 6 6 6 5 7
3 3 7 3 1 4 5 5 4 13 15 22 21 17 20 22 15 17 25 25 24 19 17 17 16 15 13 11 11 10 10 9 9 9 9 9 9 9 8 7 7 8 8 7
2 1 4 5 1 3 3 4 3 5 7 10 5 4 11 21 18 16 19 21 21 20 18 17 15 13 12 11 11 11 11 10 9 10 10 10 9 9 9 9 9 8 7 5
4 2 6 6 5 3 2 4 11 9 15 12 5 11 10 13 13 14 14 16 18 17 15 14 13 12 11 10 10 9 10 10 10 11 11 11 11 11 10 10 9 7 5 3
2 3 6 3 1 3 4 8 13 16 15 15 11 11 10 9 10 11 12 14 15 14 15 14 12 12 11 10 9 9 10 10 11 13 13 13 12 11 11 10 8 6 4 2
6 5 4 3 7 11 12 18 15 15 15 9 4 8 5 7 7 7 7 8 10 12 12 13 12 12 11 10 11 11 11 12 13 13 13 13 12 12 11 9 8 6 4 4
3 4 5 18 15 12 19 24 22 15 11 6 5 7 5 4 5 6 6 5 6 10 12 13 12 12 11 12 12 12 13 13 13 14 14 14 14 13 11 9 7 6 5 5
6 6 16 7 16 22 31 28 23 18 11 7 6 10 8 4 5 6 7 6 5 6 9 10 11 11 12 13 14 14 14 15 16 16 15 14 13 12 11 10 9 9 8 8
4 1 5 16 32 35 34 30 27 19 17 12 10 11 10 8 8 8 9 10 10 11 12 11 10 10 14 15 16 16 18 18 18 17 16 16 15 14 13 12 12 10 9 9
10 26 28 32 29 30 29 31 31 20 19 16 13 11 10 10 9 9 11 13 15 15 15 14 13 14 17 16 17 18 19 18 18 19 19 17 17 16 14 13 14 13 12 11
28 25 20 20 24 28 33 33 27 20 17 16 14 12 10 10 10 11 12 13 14 15 17 18 19 19 18 20 20 19 18 18 20 20 19 19 18 17 17 17 16 14 14 14
21 24 30 30 29 30 28 24 19 20 17 14 12 11 10 10 11 12 13 14 15 16 17 18 20 20 19 20 22 22 22 21 21 22 22 20 20 20 20 20 19 17 17 16
29 27 27 27 31 30 28 17 17 19 16 13 10 9 9 11 12 14 16 17 17 16 16 17 18 17 18 20 20 22 23 23 24 24 24 25 24 24 23 22 21 20 19 16
23 23 27 29 26 20 14 11 11 14 11 8 7 7 8 12 10 10 11 13 14 15 14 15 15 15 17 20 20 21 22 24 26 27 28 29 27 27 25 23 23 21 19 17
16 20 19 19 19 10 8 5 2 7 6 4 3 3 6 8 7 8 7 8 10 11 11 12 13 13 15 17 19 21 22 23 25 27 28 31 33 33 33 29 24 22 19 19
18 17 16 16 12 5 4 3 3 3 2 1 2 5 7 8 6 8 7 7 7 6 8 10 11 13 14 15 17 20 22 23 25 27 29 30 32 32 31 30 30 25 20 20
21 16 13 12 11 6 5 5 4 4 5 5 6 7 8 9 8 7 7 6 6 6 6 8 9 11 12 14 16 18 20 23 24 26 28 29 30 32 30 29 29 28 26 21
22 18 15 12 10 6 5 6 8 8 6 5 5 6 6 7 7 7 7 7 7 8 9 8 9 11 13 16 18 19 21 23 24 25 25 26 27 29 28 28 27 26 24 22
21 19 16 13 11 6 6 6 8 8 6 6 6 7 7 7 7 7 7 7 8 10 11 11 11 12 13 14 16 17 18 20 22 22 22 23 24 25 24 24 23 22 25 24
21 20 18 16 13 9 6 6 5 6 7 7 7 7 7 7 7 6 5 7 8 9 11 10 12 14 14 14 14 14 15 15 15 16 17 18 18 19 19 20 20 19 19 15
17 20 19 16 12 11 11 8 7 9 9 8 8 7 7 6 8 8 9 10 10 10 10 10 10 12 13 11 11 11 12 12 13 13 14 14 15 16 16 16 16 16 17 13
16 18 18 15 12 8 7 2 7 8 12 9 8 8 8 8 7 8 9 10 10 10 10 10 10 10 10 11 10 10 11 12 12 12 13 14 14 14 15 14 15 17 15 17
17 19 18 19 21 13 10 9 9 11 10 9 8 8 8 8 8 9 9 10 11 11 11 11 10 10 10 10 10 9 9 9 10 11 11 12 13 15 13 14 16 17 16 15
17 18 18 18 18 18 17 14 12 9 10 9 8 8 8 8 9 10 10 10 11 11 11 11 11 10 10 10 11 10 9 9 9 9 10 10 10 10 11 14 17 18 17 15
Wind_Direction
288 266 171 207 210 205 211 233 230 259 249 253 249 268 260 247 220 202 203 206 211 216 223 231 242 252 262 273 279 282 280 268 243 242 244 245 246 246 247 252 260 264 260 255
322 347 232 269 246 229 231 235 245 256 270 265 273 285 251 236 214 209 211 214 216 222 230 240 248 259 265 274 277 275 267 255 248 250 253 257 241 234 233 235 247 241 227 196
258 319 312 285 234 214 221 235 226 242 246 250 261 238 247 252 225 218 219 220 218 226 235 242 250 259 266 270 269 260 246 242 243 244 244 233 221 215 215 212 223 200 171 153
215 11 244 237 194 185 208 237 225 252 258 239 245 255 267 267 254 235 228 226 227 229 234 240 249 257 263 264 258 244 227 228 228 217 204 197 194 189 193 188 177 177 151 128
131 207 290 345 150 145 177 279 219 237 259 264 265 266 263 253 264 257 235 230 232 235 237 244 250 255 256 253 238 227 222 224 224 209 197 190 186 185 177 170 167 146 134 131
145 114 255 243 264 185 148 297 250 244 271 275 232 226 249 249 255 249 236 232 233 230 235 240 245 246 247 247 238 229 224 224 221 209 198 188 180 171 166 155 149 147 143 132
223 240 281 251 283 163 74 254 317 314 313 304 206 229 284 245 241 228 221 213 214 225 234 238 237 239 240 241 234 223 218 212 202 194 192 180 167 162 162 160 157 157 154 155
179 197 278 202 95 174 233 313 320 323 325 317 285 270 240 232 212 200 201 206 215 222 226 228 229 234 233 231 223 215 207 197 188 186 182 174 169 169 172 172 178 183 188 221
190 222 268 260 269 281 294 295 306 314 324 322 274 245 211 190 190 198 207 213 216 219 224 224 224 231 228 220 216 209 199 191 184 179 176 178 183 184 186 192 200 206 223 261
355 298 307 319 327 350 2 334 306 298 307 303 261 239 221 179 169 172 176 205 228 235 233 230 230 232 225 221 217 212 206 197 194 192 192 193 194 198 205 214 222 236 249 270
259 310 324 310 337 334 328 332 326 288 276 255 223 177 177 217 209 220 213 221 214 262 255 246 240 246 242 235 226 221 217 212 208 205 205 207 210 217 222 228 236 247 259 272
275 343 304 295 308 316 317 320 326 293 265 243 228 216 228 231 242 251 241 240 244 243 231 231 240 249 256 247 238 232 225 219 216 216 217 220 226 230 234 238 246 253 259 271
285 299 301 301 302 303 300 304 312 299 256 243 230 225 225 231 241 250 254 258 259 260 256 246 230 225 245 247 246 239 235 231 226 226 227 230 234 237 242 247 251 254 261 269
314 309 305 308 304 300 291 289 300 290 246 229 223 224 235 244 252 259 263 266 264 262 258 255 254 251 244 239 239 243 243 238 235 236 237 239 240 242 244 247 253 257 264 271
322 311 301 305 302 298 308 292 269 263 233 224 223 230 240 254 263 269 270 269 267 265 262 257 253 251 247 243 242 243 238 237 241 244 242 243 243 244 246 249 252 256 259 266
312 313 318 315 312 305 293 277 248 241 226 226 235 249 265 274 278 277 274 269 268 268 265 261 258 257 249 247 246 245 246 247 246 245 246 245 244 245 247 250 253 255 259 263
316 319 321 313 309 304 277 252 239 238 238 227 244 266 285 300 295 286 281 277 272 269 266 263 260 251 243 242 243 245 249 250 251 249 246 245 246 249 250 252 255 255 259 261
315 312 322 320 327 300 284 251 227 240 229 228 252 280 301 290 302 311 308 293 279 272 264 258 256 251 247 244 244 247 250 254 256 257 254 252 252 248 245 244 245 252 257 261
333 326 327 328 339 339 309 304 277 258 246 266 288 286 285 285 301 323 319 312 303 280 261 260 257 254 250 248 246 248 250 253 256 258 257 255 255 258 255 253 251 239 245 256
332 331 331 324 319 332 4 3 344 337 339 328 308 295 288 285 287 287 301 321 309 306 293 280 273 266 262 257 253 254 256 258 259 261 262 260 258 258 257 253 250 245 238 240
327 329 329 323 313 313 354 358 352 344 349 342 336 329 324 319 311 295 285 283 288 293 303 301 289 280 274 268 266 266 265 264 264 264 266 265 262 260 255 252 250 252 249 234
317 320 323 326 315 293 325 328 322 328 333 335 336 333 330 332 332 324 313 299 287 299 301 303 302 298 291 286 284 281 276 275 273 268 266 266 264 262 259 255 253 255 250 247
313 306 310 311 305 285 290 315 329 322 319 322 325 325 327 336 346 349 350 332 318 307 294 286 288 294 297 296 289 289 288 282 275 270 269 268 264 261 258 256 257 256 250 235
309 305 305 305 305 291 260 244 293 331 320 318 318 318 322 332 337 347 348 343 339 331 323 310 304 300 298 301 292 290 287 280 277 271 270 264 262 258 260 259 251 239 230 239
299 303 296 275 293 311 307 280 301 298 304 301 301 304 317 330 338 342 341 342 339 338 335 328 321 321 320 314 303 289 282 278 275 270 267 266 258 257 265 248 232 229 233 244
303 301 301 284 275 274 284 288 290 296 292 291 295 300 309 321 329 336 340 340 341 341 341 335 328 325 324 323 319 309 298 284 276 275 270 263 263 265 255 240 238 242 243 251
315 305 297 298 282 264 261 269 270 276 289 291 292 297 307 317 324 328 330 333 338 339 338 337 331 325 324 323 320 315 312 300 289 279 272 264 257 247 235 236 243 248 251 262
Height
1485 1484 1488 1488 1486 1486 1488 1483 1487 1470 1471 1467 1466 1465 1464 1464 1466 1466 1469 1471 1472 1474 1476 1478 1480 1480 1481 1481 1480 1480 1479 1479 1480 1481 1482 1483 1484 1484 1485 1485 1486 1487 1486 1486
1492 1486 1488 1488 1486 1485 1481 1479 1479 1474 1470 1465 1463 1463 1462 1461 1460 1461 1462 1464 1467 1470 1473 1474 1475 1476 1477 1477 1477 1476 1475 1477 1477 1477 1478 1480 1480 1480 1483 1481 1485 1485 1485 1485
1505 1492 1490 1494 1477 1478 1477 1473 1471 1474 1454 1458 1457 1457 1456 1455 1455 1455 1457 1460 1462 1465 1468 1471 1472 1473 1473 1473 1472 1472 1472 1474 1474 1474 1475 1477 1477 1479 1480 1479 1483 1484 1484 1484
1507 1497 1504 1467 1464 1465 1469 1465 1465 1461 1454 1453 1450 1450 1450 1449 1448 1450 1453 1457 1460 1462 1465 1467 1468 1469 1469 1468 1468 1469 1470 1471 1471 1472 1473 1475 1476 1476 1478 1478 1480 1483 1483 1484
1502 1506 1479 1459 1462 1464 1463 1460 1456 1456 1452 1448 1447 1447 1444 1444 1445 1445 1448 1453 1456 1459 1462 1463 1464 1465 1465 1465 1465 1466 1467 1469 1470 1471 1472 1473 1474 1475 1476 1477 1480 1482 1484 1485
1492 1495 1487 1464 1457 1457 1458 1465 1452 1451 1448 1445 1445 1449 1437 1439 1441 1442 1443 1448 1452 1455 1457 1459 1460 1461 1462 1462 1463 1463 1465 1466 1468 1469 1471 1471 1472 1474 1476 1478 1480 1483 1485 1486
1485 1480 1474 1460 1457 1456 1463 1463 1449 1448 1444 1441 1442 1437 1436 1436 1437 1439 1441 1444 1448 1451 1453 1455 1457 1458 1459 1459 1460 1462 1462 1463 1465 1467 1470 1470 1472 1473 1477 1478 1481 1483 1484 1485
1483 1479 1482 1455 1456 1459 1456 1450 1448 1445 1442 1439 1436 1436 1436 1435 1436 1438 1441 1443 1446 1448 1451 1453 1455 1456 1457 1458 1459 1460 1461 1463 1464 1466 1468 1470 1472 1474 1477 1479 1481 1482 1483 1484
1478 1471 1456 1455 1454 1453 1452 1449 1446 1444 1442 1439 1438 1438 1437 1437 1437 1439 1441 1443 1445 1447 1449 1451 1452 1454 1456 1457 1458 1459 1461 1462 1464 1466 1468 1471 1473 1474 1476 1478 1480 1480 1481 1482
1470 1459 1457 1454 1454 1454 1452 1450 1447 1444 1441 1439 1438 1438 1438 1438 1439 1440 1441 1443 1445 1446 1447 1449 1451 1453 1455 1455 1457 1458 1460 1462 1464 1466 1468 1470 1472 1473 1475 1477 1478 1478 1479 1479
1465 1459 1455 1452 1453 1453 1449 1447 1444 1443 1441 1438 1437 1437 1438 1439 1439 1440 1441 1442 1443 1444 1445 1447 1448 1451 1452 1454 1455 1456 1459 1461 1463 1465 1467 1469 1470 1472 1473 1474 1475 1476 1476 1477
1469 1466 1465 1459 1453 1451 1448 1445 1443 1440 1439 1437 1437 1437 1437 1437 1438 1439 1440 1441 1442 1442 1442 1443 1445 1448 1450 1452 1453 1455 1456 1458 1460 1462 1464 1466 1468 1469 1470 1471 1472 1473 1473 1474
1469 1463 1459 1453 1450 1448 1444 1441 1439 1436 1436 1435 1434 1435 1435 1436 1436 1437 1437 1438 1439 1440 1441 1442 1443 1444 1445 1448 1449 1451 1453 1455 1457 1459 1461 1463 1464 1465 1467 1468 1469 1470 1470 1470
1461 1457 1451 1449 1444 1442 1439 1435 1435 1433 1433 1432 1431 1431 1432 1433 1434 1434 1434 1434 1435 1435 1436 1437 1438 1439 1441 1443 1445 1447 1449 1451 1453 1455 1457 1458 1460 1461 1463 1463 1464 1465 1466 1466
1455 1454 1449 1444 1438 1434 1432 1430 1429 1429 1430 1430 1429 1428 1429 1430 1430 1430 1430 1430 1429 1430 1431 1432 1432 1434 1437 1438 1440 1441 1442 1445 1447 1450 1452 1453 1455 1456 1457 1458 1459 1460 1461 1461
1451 1447 1443 1437 1433 1430 1428 1425 1423 1425 1426 1426 1426 1426 1426 1426 1426 1425 1425 1424 1424 1425 1425 1426 1427 1429 1431 1432 1434 1436 1437 1439 1441 1443 1446 1447 1448 1450 1451 1452 1453 1454 1455 1457
1449 1442 1438 1433 1430 1426 1423 1421 1421 1421 1422 1422 1422 1423 1423 1423 1422 1420 1420 1420 1420 1420 1420 1420 1422 1423 1424 1426 1428 1430 1432 1433 1435 1437 1438 1439 1442 1443 1445 1446 1447 1448 1450 1451
1449 1444 1438 1432 1427 1422 1420 1419 1417 1418 1419 1419 1419 1420 1420 1420 1419 1418 1417 1416 1416 1417 1416 1416 1417 1418 1419 1421 1423 1425 1426 1427 1429 1430 1431 1431 1432 1433 1435 1437 1440 1442 1444 1444
1446 1441 1436 1431 1427 1424 1421 1419 1419 1419 1417 1417 1417 1418 1418 1418 1416 1416 1414 1414 1414 1414 1413 1413 1413 1414 1415 1417 1418 1419 1420 1421 1422 1422 1423 1424 1425 1427 1427 1429 1430 1432 1436 1438
1445 1440 1436 1432 1428 1425 1422 1422 1420 1418 1417 1416 1416 1416 1416 1415 1414 1413 1413 1412 1412 1411 1411 1410 1411 1411 1411 1412 1413 1413 1414 1414 1415 1415 1416 1417 1418 1418 1420 1422 1424 1425 1427 1430
1444 1440 1436 1432 1428 1425 1423 1421 1419 1418 1416 1416 1415 1414 1414 1413 1412 1411 1410 1410 1410 1410 1409 1408 1407 1407 1407 1408 1408 1408 1408 1408 1408 1408 1409 1410 1411 1412 1413 1415 1417 1419 1421 1422
1442 1438 1435 1430 1427 1425 1423 1421 1420 1418 1418 1416 1415 1415 1414 1412 1411 1409 1408 1407 1407 1406 1406 1405 1404 1404 1403 1403 1403 1402 1401 1401 1402 1402 1403 1404 1404 1405 1407 1409 1411 1413 1415 1417
1437 1435 1433 1429 1426 1424 1423 1421 1419 1418 1418 1417 1415 1414 1413 1411 1410 1408 1407 1406 1405 1404 1403 1402 1402 1400 1399 1398 1398 1397 1396 1396 1396 1397 1397 1398 1399 1400 1402 1404 1405 1407 1410 1413
1432 1430 1429 1427 1423 1420 1419 1418 1418 1416 1416 1415 1414 1413 1412 1410 1409 1407 1405 1404 1402 1402 1401 1399 1398 1396 1395 1395 1394 1393 1393 1392 1392 1393 1393 1394 1395 1396 1398 1399 1400 1403 1405 1407
1427 1425 1425 1424 1422 1419 1417 1415 1416 1415 1414 1414 1413 1412 1411 1409 1408 1406 1404 1403 1402 1400 1398 1396 1395 1394 1393 1392 1391 1390 1389 1389 1389 1389 1390 1390 1391 1393 1393 1394 1396 1398 1401 1403
1422 1421 1420 1419 1418 1417 1416 1415 1414 1413 1412 1411 1411 1410 1409 1408 1406 1405 1403 1402 1401 1398 1396 1395 1393 1392 1391 1390 1388 1387 1386 1386 1386 1387 1387 1388 1388 1389 1390 1391 1393 1396 1397 1399
1418 1417 1415 1415 1414 1413 1413 1412 1411 1410 1410 1409 1408 1408 1407 1405 1404 1403 1401 1400 1399 1397 1395 1393 1392 1390 1389 1388 1387 1386 1385 1384 1384 1384 1384 1384 1385 1385 1387 1388 1390 1391 1392 1394